Wetterdaten: Woche 19.01.15 - 25.01.15 (KW4)
Datum Zeit Temp. A. Feuchte A. Luftdruck Regen Wind Richtung Sonnenschein ET UV Solar Taupunkt Windchill Windben Empfang
19.01.2015 00:00 1,3 C 81 % 1013,7 hPa 0,0 l/m 1,2 km/h (1 Bft) O 0,00 h 0,000 mm 0,0 UV-I 0 W/m -1,7 C 1,3 C 2,0 km/h (1 Bft) 0,00 %
19.01.2015 01:00 1,3 C 81 % 1013,7 hPa 0,0 l/m 1,4 km/h (1 Bft) O-NO 0,00 h 0,000 mm 0,0 UV-I 0 W/m -1,7 C 1,3 C 3,0 km/h (1 Bft) 0,00 %
19.01.2015 02:00 1,2 C 81 % 1013,3 hPa 0,0 l/m 1,4 km/h (1 Bft) SO 0,00 h 0,000 mm 0,0 UV-I 0 W/m -1,7 C 1,2 C 4,0 km/h (1 Bft) 0,00 %
19.01.2015 03:00 1,3 C 80 % 1012,8 hPa 0,0 l/m 2,8 km/h (1 Bft) O-SO 0,00 h 0,000 mm 0,0 UV-I 0 W/m -1,8 C 1,3 C 4,9 km/h (1 Bft) 0,00 %
19.01.2015 04:00 1,1 C 79 % 1012,7 hPa 0,0 l/m 5,2 km/h (1 Bft) O-SO 0,00 h 0,000 mm 0,0 UV-I 0 W/m -2,1 C 0,6 C 8,9 km/h (2 Bft) 0,00 %
19.01.2015 05:00 0,8 C 80 % 1012,5 hPa 0,0 l/m 0,6 km/h (0 Bft) N 0,00 h 0,000 mm 0,0 UV-I 0 W/m -2,3 C 0,8 C 2,0 km/h (1 Bft) 0,00 %
19.01.2015 06:00 0,8 C 80 % 1012,5 hPa 0,0 l/m 0,1 km/h (0 Bft) N 0,00 h 0,000 mm 0,0 UV-I 0 W/m -2,3 C 0,8 C 1,0 km/h (0 Bft) 0,00 %
19.01.2015 07:00 0,7 C 80 % 1012,4 hPa 0,0 l/m 0,2 km/h (0 Bft) N 0,00 h 0,000 mm 0,0 UV-I 0 W/m -2,3 C 0,7 C 2,0 km/h (1 Bft) 0,00 %
19.01.2015 08:00 0,7 C 80 % 1012,8 hPa 0,0 l/m 0,3 km/h (0 Bft) O 0,00 h 0,000 mm 0,0 UV-I 6 W/m -2,3 C 0,7 C 1,0 km/h (0 Bft) 0,00 %
19.01.2015 09:00 0,9 C 79 % 1012,9 hPa 0,0 l/m 0,3 km/h (0 Bft) N 0,00 h 0,000 mm 0,0 UV-I 30 W/m -2,3 C 0,9 C 1,0 km/h (0 Bft) 0,00 %
19.01.2015 10:00 1,0 C 79 % 1013,1 hPa 0,0 l/m 0,4 km/h (0 Bft) O-SO 0,00 h 0,000 mm 1,0 UV-I 46 W/m -2,3 C 1,0 C 1,0 km/h (0 Bft) 0,00 %
19.01.2015 11:00 1,7 C 75 % 1012,6 hPa 0,0 l/m 0,6 km/h (0 Bft) O 0,00 h 0,000 mm 1,0 UV-I 170 W/m -2,2 C 1,7 C 2,0 km/h (1 Bft) 0,00 %
19.01.2015 12:00 2,1 C 73 % 1012,0 hPa 0,0 l/m 2,8 km/h (1 Bft) O 0,75 h 0,000 mm 1,3 UV-I 212 W/m -2,2 C 2,1 C 5,9 km/h (2 Bft) 0,00 %
19.01.2015 13:00 2,2 C 71 % 1011,4 hPa 0,0 l/m 1,3 km/h (1 Bft) S-SO 0,75 h 0,000 mm 1,0 UV-I 168 W/m -2,6 C 2,2 C 5,0 km/h (1 Bft) 0,00 %
19.01.2015 14:00 2,2 C 66 % 1010,9 hPa 0,0 l/m 3,3 km/h (1 Bft) O-NO 0,00 h 0,000 mm 1,0 UV-I 91 W/m -3,4 C 2,2 C 6,0 km/h (2 Bft) 0,00 %
19.01.2015 15:00 2,1 C 66 % 1010,9 hPa 0,0 l/m 0,6 km/h (0 Bft) N 0,00 h 0,000 mm 1,0 UV-I 55 W/m -3,5 C 2,1 C 2,0 km/h (1 Bft) 0,00 %
19.01.2015 16:00 1,4 C 68 % 1011,1 hPa 0,0 l/m 0,1 km/h (0 Bft) N 0,00 h 0,000 mm 0,0 UV-I 9 W/m -3,9 C 1,4 C 1,0 km/h (0 Bft) 0,00 %
19.01.2015 17:00 0,6 C 69 % 1011,5 hPa 0,0 l/m 0,0 km/h (0 Bft) N 0,00 h 0,000 mm 0,0 UV-I 0 W/m -4,4 C 0,6 C 0,0 km/h (0 Bft) 0,00 %
19.01.2015 18:00 0,2 C 71 % 1011,3 hPa 0,0 l/m 0,1 km/h (0 Bft) N 0,00 h 0,000 mm 0,0 UV-I 0 W/m -4,4 C 0,2 C 1,0 km/h (0 Bft) 0,00 %
19.01.2015 19:00 -0,3 C 75 % 1011,3 hPa 0,0 l/m 0,0 km/h (0 Bft) N 0,00 h 0,000 mm 0,0 UV-I 0 W/m -4,3 C -0,3 C 0,0 km/h (0 Bft) 0,00 %
19.01.2015 20:00 -0,4 C 76 % 1011,3 hPa 0,0 l/m 0,1 km/h (0 Bft) N 0,00 h 0,000 mm 0,0 UV-I 0 W/m -4,1 C -0,4 C 1,0 km/h (0 Bft) 0,00 %
19.01.2015 21:00 -0,4 C 76 % 1010,8 hPa 0,0 l/m 1,2 km/h (1 Bft) O 0,00 h 0,000 mm 0,0 UV-I 0 W/m -4,2 C -0,4 C 3,0 km/h (1 Bft) 0,00 %
19.01.2015 22:00 -0,5 C 77 % 1010,5 hPa 0,0 l/m 0,1 km/h (0 Bft) N 0,00 h 0,000 mm 0,0 UV-I 0 W/m -4,1 C -0,5 C 1,0 km/h (0 Bft) 0,00 %
19.01.2015 23:00 -1,1 C 80 % 1010,4 hPa 0,0 l/m 0,4 km/h (0 Bft) NO 0,00 h 0,000 mm 0,0 UV-I 0 W/m -4,2 C -1,1 C 2,0 km/h (1 Bft) 0,00 %
20.01.2015 00:00 -0,8 C 80 % 1009,9 hPa 0,0 l/m 2,7 km/h (1 Bft) O 0,00 h 0,000 mm 0,0 UV-I 0 W/m -3,8 C -1,2 C 4,0 km/h (1 Bft) 0,00 %
20.01.2015 01:00 -0,5 C 80 % 1009,7 hPa 0,0 l/m 1,9 km/h (1 Bft) O-NO 0,00 h 0,000 mm 0,0 UV-I 0 W/m -3,5 C -0,5 C 4,0 km/h (1 Bft) 0,00 %
20.01.2015 02:00 -0,5 C 81 % 1009,4 hPa 0,0 l/m 3,0 km/h (1 Bft) O-SO 0,00 h 0,000 mm 0,0 UV-I 0 W/m -3,5 C -0,5 C 6,9 km/h (2 Bft) 0,00 %
20.01.2015 03:00 -0,7 C 81 % 1009,2 hPa 0,0 l/m 1,3 km/h (1 Bft) O-SO 0,00 h 0,000 mm 0,0 UV-I 0 W/m -3,5 C -0,7 C 4,0 km/h (1 Bft) 0,00 %
20.01.2015 04:00 -0,6 C 82 % 1009,0 hPa 0,0 l/m 0,1 km/h (0 Bft) N 0,00 h 0,000 mm 0,0 UV-I 0 W/m -3,3 C -0,6 C 1,0 km/h (0 Bft) 0,00 %
20.01.2015 05:00 -0,7 C 81 % 1008,9 hPa 0,0 l/m 0,3 km/h (0 Bft) O-SO 0,00 h 0,000 mm 0,0 UV-I 0 W/m -3,5 C -0,7 C 1,0 km/h (0 Bft) 0,00 %
20.01.2015 06:00 -0,6 C 81 % 1009,0 hPa 0,0 l/m 0,0 km/h (0 Bft) N 0,00 h 0,000 mm 0,0 UV-I 0 W/m -3,5 C -0,6 C 0,0 km/h (0 Bft) 0,00 %
20.01.2015 07:00 -0,6 C 81 % 1009,3 hPa 0,0 l/m 0,0 km/h (0 Bft) N 0,00 h 0,000 mm 0,0 UV-I 0 W/m -3,4 C -0,6 C 0,0 km/h (0 Bft) 0,00 %
20.01.2015 08:00 -0,4 C 80 % 1009,4 hPa 0,0 l/m 0,0 km/h (0 Bft) N 0,00 h 0,000 mm 0,0 UV-I 18 W/m -3,5 C -0,4 C 0,0 km/h (0 Bft) 0,00 %
20.01.2015 09:00 0,0 C 77 % 1009,6 hPa 0,0 l/m 0,0 km/h (0 Bft) N 0,50 h 0,000 mm 1,0 UV-I 133 W/m -3,5 C 0,0 C 0,0 km/h (0 Bft) 0,00 %
20.01.2015 10:00 0,5 C 73 % 1009,5 hPa 0,0 l/m 0,0 km/h (0 Bft) N 0,00 h 0,000 mm 1,0 UV-I 130 W/m -3,8 C 0,5 C 0,0 km/h (0 Bft) 0,00 %
20.01.2015 11:00 0,8 C 72 % 1009,4 hPa 0,0 l/m 0,0 km/h (0 Bft) N 0,00 h 0,000 mm 1,0 UV-I 145 W/m -3,6 C 0,8 C 0,0 km/h (0 Bft) 0,00 %
20.01.2015 12:00 1,2 C 71 % 1009,1 hPa 0,0 l/m 0,0 km/h (0 Bft) N 0,00 h 0,000 mm 1,0 UV-I 196 W/m -3,6 C 1,2 C 0,0 km/h (0 Bft) 0,00 %
20.01.2015 13:00 1,2 C 69 % 1009,0 hPa 0,0 l/m 0,0 km/h (0 Bft) N 0,50 h 0,000 mm 1,0 UV-I 200 W/m -3,8 C 1,2 C 0,0 km/h (0 Bft) 0,00 %
20.01.2015 14:00 1,5 C 68 % 1008,9 hPa 0,0 l/m 0,0 km/h (0 Bft) N 0,00 h 0,000 mm 1,0 UV-I 119 W/m -3,8 C 1,5 C 0,0 km/h (0 Bft) 0,00 %
20.01.2015 15:00 1,2 C 69 % 1009,3 hPa 0,0 l/m 0,0 km/h (0 Bft) N 0,75 h 0,000 mm 1,0 UV-I 90 W/m -3,9 C 1,2 C 0,0 km/h (0 Bft) 0,00 %
20.01.2015 16:00 0,5 C 73 % 1009,8 hPa 0,0 l/m 0,0 km/h (0 Bft) N 0,00 h 0,000 mm 0,0 UV-I 0 W/m -3,9 C 0,5 C 0,0 km/h (0 Bft) 0,00 %
20.01.2015 17:00 0,3 C 76 % 1010,3 hPa 0,0 l/m 0,0 km/h (0 Bft) N 0,00 h 0,000 mm 0,0 UV-I 0 W/m -3,4 C 0,3 C 0,0 km/h (0 Bft) 0,00 %
20.01.2015 18:00 0,2 C 78 % 1010,5 hPa 0,0 l/m 0,0 km/h (0 Bft) N 0,00 h 0,000 mm 0,0 UV-I 0 W/m -3,2 C 0,2 C 0,0 km/h (0 Bft) 0,00 %
20.01.2015 19:00 0,3 C 79 % 1011,0 hPa 0,0 l/m 0,0 km/h (0 Bft) N 0,00 h 0,000 mm 0,0 UV-I 0 W/m -3,0 C 0,3 C 0,0 km/h (0 Bft) 0,00 %
20.01.2015 20:00 0,3 C 77 % 1011,3 hPa 0,0 l/m 0,0 km/h (0 Bft) N 0,00 h 0,000 mm 0,0 UV-I 0 W/m -3,2 C 0,3 C 0,0 km/h (0 Bft) 0,00 %
20.01.2015 21:00 0,1 C 75 % 1011,8 hPa 0,0 l/m 0,1 km/h (0 Bft) N 0,00 h 0,000 mm 0,0 UV-I 0 W/m -3,7 C 0,1 C 1,0 km/h (0 Bft) 0,00 %
20.01.2015 22:00 0,0 C 74 % 1011,9 hPa 0,0 l/m 0,0 km/h (0 Bft) N 0,00 h 0,000 mm 0,0 UV-I 0 W/m -4,1 C 0,0 C 0,0 km/h (0 Bft) 0,00 %
20.01.2015 23:00 -0,1 C 73 % 1012,2 hPa 0,0 l/m 0,0 km/h (0 Bft) N 0,00 h 0,000 mm 0,0 UV-I 0 W/m -4,3 C -0,1 C 0,0 km/h (0 Bft) 0,00 %
21.01.2015 00:00 -0,2 C 73 % 1012,3 hPa 0,0 l/m 0,0 km/h (0 Bft) N 0,00 h 0,000 mm 0,0 UV-I 0 W/m -4,5 C -0,2 C 0,0 km/h (0 Bft) 0,00 %
21.01.2015 01:00 -0,2 C 73 % 1012,3 hPa 0,0 l/m 0,0 km/h (0 Bft) N 0,00 h 0,000 mm 0,0 UV-I 0 W/m -4,5 C -0,2 C 0,0 km/h (0 Bft) 0,00 %
21.01.2015 02:00 -0,3 C 75 % 1012,3 hPa 0,0 l/m 0,0 km/h (0 Bft) N 0,00 h 0,000 mm 0,0 UV-I 0 W/m -4,3 C -0,3 C 0,0 km/h (0 Bft) 0,00 %
21.01.2015 03:00 -0,3 C 75 % 1012,1 hPa 0,0 l/m 0,0 km/h (0 Bft) N 0,00 h 0,000 mm 0,0 UV-I 0 W/m -4,2 C -0,3 C 0,0 km/h (0 Bft) 0,00 %
21.01.2015 04:00 -0,4 C 75 % 1012,0 hPa 0,0 l/m 0,0 km/h (0 Bft) O-NO 0,00 h 0,000 mm 0,0 UV-I 0 W/m -4,2 C -0,4 C 0,0 km/h (0 Bft) 0,00 %
21.01.2015 05:00 -0,4 C 72 % 1012,1 hPa 0,0 l/m 0,7 km/h (0 Bft) N 0,00 h 0,000 mm 0,0 UV-I 0 W/m -4,8 C -0,4 C 3,0 km/h (1 Bft) 0,00 %
21.01.2015 06:00 -0,5 C 73 % 1012,2 hPa 0,0 l/m 0,0 km/h (0 Bft) N 0,00 h 0,000 mm 0,0 UV-I 0 W/m -4,8 C -0,5 C 0,0 km/h (0 Bft) 0,00 %
21.01.2015 07:00 -0,5 C 72 % 1012,3 hPa 0,0 l/m 0,9 km/h (0 Bft) O 0,00 h 0,000 mm 0,0 UV-I 0 W/m -4,8 C -0,5 C 2,0 km/h (1 Bft) 0,00 %
21.01.2015 08:00 -0,4 C 72 % 1012,6 hPa 0,0 l/m 1,6 km/h (1 Bft) O-SO 0,00 h 0,000 mm 0,0 UV-I 33 W/m -4,8 C -0,4 C 3,0 km/h (1 Bft) 0,00 %
21.01.2015 09:00 -0,2 C 71 % 1012,8 hPa 0,0 l/m 0,9 km/h (0 Bft) N 0,00 h 0,000 mm 0,0 UV-I 85 W/m -4,8 C -0,2 C 3,0 km/h (1 Bft) 0,00 %
21.01.2015 10:00 -0,2 C 71 % 1012,7 hPa 0,0 l/m 2,0 km/h (1 Bft) O 0,00 h 0,000 mm 1,0 UV-I 130 W/m -4,7 C -0,4 C 5,0 km/h (1 Bft) 0,00 %
21.01.2015 11:00 -0,1 C 70 % 1012,3 hPa 0,0 l/m 0,8 km/h (0 Bft) O 1,00 h 0,000 mm 1,0 UV-I 210 W/m -5,0 C -0,1 C 3,0 km/h (1 Bft) 0,00 %
21.01.2015 12:00 0,1 C 69 % 1011,8 hPa 0,0 l/m 5,7 km/h (1 Bft) O-SO 1,00 h 0,000 mm 1,0 UV-I 223 W/m -4,9 C -1,3 C 6,9 km/h (2 Bft) 0,00 %
21.01.2015 13:00 0,4 C 68 % 1011,0 hPa 0,0 l/m 7,5 km/h (2 Bft) O 1,00 h 0,000 mm 1,0 UV-I 233 W/m -4,8 C -1,8 C 10,9 km/h (2 Bft) 0,00 %
21.01.2015 14:00 0,5 C 67 % 1010,9 hPa 0,0 l/m 6,5 km/h (2 Bft) O-SO 0,00 h 0,000 mm 1,0 UV-I 107 W/m -4,8 C -0,7 C 13,0 km/h (3 Bft) 0,00 %
21.01.2015 15:00 0,9 C 68 % 1010,2 hPa 0,0 l/m 7,2 km/h (2 Bft) O-SO 0,00 h 0,000 mm 0,0 UV-I 49 W/m -4,3 C -0,7 C 9,9 km/h (2 Bft) 0,00 %
21.01.2015 16:00 1,0 C 69 % 1010,3 hPa 0,0 l/m 7,1 km/h (2 Bft) O 0,00 h 0,000 mm 0,0 UV-I 0 W/m -4,0 C -0,0 C 9,9 km/h (2 Bft) 0,00 %
21.01.2015 17:00 1,0 C 70 % 1010,1 hPa 0,0 l/m 6,5 km/h (2 Bft) O-SO 0,00 h 0,000 mm 0,0 UV-I 0 W/m -3,8 C -0,6 C 8,9 km/h (2 Bft) 0,00 %
21.01.2015 18:00 1,1 C 71 % 1010,0 hPa 0,0 l/m 11,7 km/h (2 Bft) O-SO 0,00 h 0,000 mm 0,0 UV-I 0 W/m -3,7 C -3,6 C 14,9 km/h (3 Bft) 0,00 %
21.01.2015 19:00 1,1 C 71 % 1009,9 hPa 0,0 l/m 9,8 km/h (2 Bft) O 0,00 h 0,000 mm 0,0 UV-I 0 W/m -3,5 C -1,8 C 11,9 km/h (2 Bft) 0,00 %
21.01.2015 20:00 1,1 C 73 % 1009,8 hPa 0,0 l/m 7,1 km/h (2 Bft) O 0,00 h 0,000 mm 0,0 UV-I 0 W/m -3,3 C -0,9 C 10,9 km/h (2 Bft) 0,00 %
21.01.2015 21:00 0,9 C 73 % 1009,6 hPa 0,0 l/m 2,6 km/h (1 Bft) O 0,00 h 0,000 mm 0,0 UV-I 0 W/m -3,4 C 0,9 C 6,9 km/h (2 Bft) 0,00 %
21.01.2015 22:00 1,0 C 74 % 1009,4 hPa 0,0 l/m 1,5 km/h (1 Bft) NO 0,00 h 0,000 mm 0,0 UV-I 0 W/m -3,2 C 1,0 C 5,0 km/h (1 Bft) 0,00 %
21.01.2015 23:00 1,2 C 77 % 1009,1 hPa 0,0 l/m 3,9 km/h (1 Bft) S 0,00 h 0,000 mm 0,0 UV-I 0 W/m -2,4 C 1,1 C 7,9 km/h (2 Bft) 0,00 %
22.01.2015 00:00 1,4 C 79 % 1008,6 hPa 0,0 l/m 4,3 km/h (1 Bft) O 0,00 h 0,000 mm 0,0 UV-I 0 W/m -1,9 C 1,4 C 6,9 km/h (2 Bft) 0,00 %
22.01.2015 01:00 1,3 C 79 % 1008,5 hPa 0,0 l/m 2,3 km/h (1 Bft) O 0,00 h 0,000 mm 0,0 UV-I 0 W/m -2,0 C 1,3 C 5,9 km/h (2 Bft) 0,00 %
22.01.2015 02:00 1,2 C 79 % 1008,5 hPa 0,0 l/m 1,7 km/h (1 Bft) O-NO 0,00 h 0,000 mm 0,0 UV-I 0 W/m -2,1 C 1,2 C 4,0 km/h (1 Bft) 0,00 %
22.01.2015 03:00 1,1 C 79 % 1008,5 hPa 0,0 l/m 2,4 km/h (1 Bft) O 0,00 h 0,000 mm 0,0 UV-I 0 W/m -2,1 C 1,1 C 5,0 km/h (1 Bft) 0,00 %
22.01.2015 04:00 1,1 C 80 % 1008,2 hPa 0,0 l/m 4,4 km/h (1 Bft) O-NO 0,00 h 0,000 mm 0,0 UV-I 0 W/m -2,0 C 0,6 C 5,9 km/h (2 Bft) 0,00 %
22.01.2015 05:00 1,0 C 80 % 1008,1 hPa 0,0 l/m 5,0 km/h (1 Bft) O 0,00 h 0,000 mm 0,0 UV-I 0 W/m -2,0 C 0,6 C 7,9 km/h (2 Bft) 0,00 %
22.01.2015 06:00 1,1 C 80 % 1008,2 hPa 0,0 l/m 3,0 km/h (1 Bft) O-SO 0,00 h 0,000 mm 0,0 UV-I 0 W/m -2,0 C 1,1 C 4,9 km/h (1 Bft) 0,00 %
22.01.2015 07:00 1,1 C 81 % 1008,2 hPa 0,0 l/m 0,6 km/h (0 Bft) NO 0,00 h 0,000 mm 0,0 UV-I 0 W/m -1,8 C 1,1 C 2,0 km/h (1 Bft) 0,00 %
22.01.2015 08:00 1,3 C 81 % 1008,5 hPa 0,0 l/m 2,8 km/h (1 Bft) O-NO 0,00 h 0,000 mm 0,0 UV-I 18 W/m -1,7 C 1,1 C 6,0 km/h (2 Bft) 0,00 %
22.01.2015 09:00 1,9 C 79 % 1008,9 hPa 0,0 l/m 4,1 km/h (1 Bft) O 0,00 h 0,000 mm 1,0 UV-I 45 W/m -1,4 C 1,5 C 4,9 km/h (1 Bft) 0,00 %
22.01.2015 10:00 2,5 C 80 % 1009,1 hPa 0,0 l/m 1,6 km/h (1 Bft) S 0,00 h 0,000 mm 1,0 UV-I 84 W/m -0,6 C 2,5 C 4,0 km/h (1 Bft) 0,00 %
22.01.2015 11:00 3,3 C 80 % 1008,9 hPa 0,0 l/m 3,1 km/h (1 Bft) SO 0,00 h 0,000 mm 1,0 UV-I 102 W/m 0,1 C 3,3 C 5,9 km/h (2 Bft) 0,00 %
22.01.2015 12:00 3,7 C 77 % 1008,7 hPa 0,0 l/m 0,1 km/h (0 Bft) N 0,00 h 0,000 mm 1,0 UV-I 70 W/m 0,1 C 3,7 C 1,0 km/h (0 Bft) 0,00 %
22.01.2015 13:00 4,7 C 74 % 1008,6 hPa 0,0 l/m 0,0 km/h (0 Bft) N 0,00 h 0,000 mm 1,0 UV-I 109 W/m 0,5 C 4,7 C 0,0 km/h (0 Bft) 0,00 %
22.01.2015 14:00 4,8 C 74 % 1008,7 hPa 0,0 l/m 0,0 km/h (0 Bft) W-SW 0,00 h 0,000 mm 1,0 UV-I 101 W/m 0,6 C 4,8 C 0,0 km/h (0 Bft) 0,00 %
22.01.2015 15:00 3,8 C 78 % 1009,4 hPa 0,0 l/m 0,3 km/h (0 Bft) N 0,00 h 0,000 mm 0,0 UV-I 26 W/m 0,3 C 3,8 C 1,0 km/h (0 Bft) 0,00 %
22.01.2015 16:00 2,8 C 81 % 1010,3 hPa 0,0 l/m 0,1 km/h (0 Bft) N 0,00 h 0,000 mm 0,0 UV-I 1 W/m -0,2 C 2,8 C 1,0 km/h (0 Bft) 0,00 %
22.01.2015 17:00 2,3 C 78 % 1011,2 hPa 0,0 l/m 0,5 km/h (0 Bft) W-SW 0,00 h 0,000 mm 0,0 UV-I 0 W/m -1,1 C 2,3 C 2,0 km/h (1 Bft) 0,00 %
22.01.2015 18:00 2,1 C 78 % 1012,0 hPa 0,0 l/m 0,4 km/h (0 Bft) N 0,00 h 0,000 mm 0,0 UV-I 0 W/m -1,3 C 2,1 C 3,0 km/h (1 Bft) 0,00 %
22.01.2015 19:00 2,2 C 79 % 1012,5 hPa 0,0 l/m 0,2 km/h (0 Bft) N 0,00 h 0,000 mm 0,0 UV-I 0 W/m -1,1 C 2,2 C 1,0 km/h (0 Bft) 0,00 %
22.01.2015 20:00 2,0 C 78 % 1013,1 hPa 0,0 l/m 1,3 km/h (1 Bft) SW 0,00 h 0,000 mm 0,0 UV-I 0 W/m -1,4 C 2,0 C 4,0 km/h (1 Bft) 0,00 %
22.01.2015 21:00 1,6 C 78 % 1013,5 hPa 0,0 l/m 1,4 km/h (1 Bft) W-SW 0,00 h 0,000 mm 0,0 UV-I 0 W/m -1,8 C 1,6 C 4,0 km/h (1 Bft) 0,00 %
22.01.2015 22:00 1,4 C 79 % 1014,0 hPa 0,0 l/m 0,4 km/h (0 Bft) W-SW 0,00 h 0,000 mm 0,0 UV-I 0 W/m -1,8 C 1,4 C 3,0 km/h (1 Bft) 0,00 %
22.01.2015 23:00 1,1 C 80 % 1014,7 hPa 0,0 l/m 2,8 km/h (1 Bft) SW 0,00 h 0,000 mm 0,0 UV-I 0 W/m -2,0 C 1,1 C 5,0 km/h (1 Bft) 0,00 %
23.01.2015 00:00 0,8 C 80 % 1014,8 hPa 0,0 l/m 1,0 km/h (0 Bft) SW 0,00 h 0,000 mm 0,0 UV-I 0 W/m -2,2 C 0,8 C 4,0 km/h (1 Bft) 0,00 %
23.01.2015 01:00 0,6 C 80 % 1015,2 hPa 0,0 l/m 0,8 km/h (0 Bft) W-SW 0,00 h 0,000 mm 0,0 UV-I 0 W/m -2,4 C 0,6 C 3,0 km/h (1 Bft) 0,00 %
23.01.2015 02:00 0,5 C 80 % 1015,6 hPa 0,0 l/m 1,3 km/h (1 Bft) W-SW 0,00 h 0,000 mm 0,0 UV-I 0 W/m -2,5 C 0,5 C 4,0 km/h (1 Bft) 0,00 %
23.01.2015 03:00 0,2 C 81 % 1015,7 hPa 0,0 l/m 1,3 km/h (1 Bft) SW 0,00 h 0,000 mm 0,0 UV-I 0 W/m -2,6 C 0,2 C 3,0 km/h (1 Bft) 0,00 %
23.01.2015 04:00 0,2 C 81 % 1016,0 hPa 0,0 l/m 0,3 km/h (0 Bft) N 0,00 h 0,000 mm 0,0 UV-I 0 W/m -2,7 C 0,2 C 2,0 km/h (1 Bft) 0,00 %
23.01.2015 05:00 0,2 C 81 % 1016,3 hPa 0,0 l/m 0,1 km/h (0 Bft) N 0,00 h 0,000 mm 0,0 UV-I 0 W/m -2,6 C 0,2 C 1,0 km/h (0 Bft) 0,00 %
23.01.2015 06:00 0,3 C 80 % 1016,8 hPa 0,0 l/m 0,4 km/h (0 Bft) W-SW 0,00 h 0,000 mm 0,0 UV-I 0 W/m -2,7 C 0,3 C 2,0 km/h (1 Bft) 0,00 %
23.01.2015 07:00 0,4 C 79 % 1017,4 hPa 0,0 l/m 0,7 km/h (0 Bft) SW 0,00 h 0,000 mm 0,0 UV-I 0 W/m -2,8 C 0,4 C 2,0 km/h (1 Bft) 0,00 %
23.01.2015 08:00 0,6 C 78 % 1017,6 hPa 0,0 l/m 0,6 km/h (0 Bft) W-SW 0,00 h 0,000 mm 0,0 UV-I 48 W/m -2,9 C 0,6 C 3,0 km/h (1 Bft) 0,00 %
23.01.2015 09:00 0,8 C 77 % 1018,1 hPa 0,0 l/m 2,3 km/h (1 Bft) W-SW 0,50 h 0,000 mm 1,0 UV-I 139 W/m -2,8 C 0,8 C 4,0 km/h (1 Bft) 0,00 %
23.01.2015 10:00 1,3 C 77 % 1018,5 hPa 0,0 l/m 1,5 km/h (1 Bft) W-SW 1,00 h 0,000 mm 1,0 UV-I 250 W/m -2,4 C 1,3 C 2,0 km/h (1 Bft) 0,00 %
23.01.2015 11:00 1,2 C 79 % 1018,5 hPa 0,0 l/m 1,7 km/h (1 Bft) W-SW 0,50 h 0,000 mm 1,0 UV-I 170 W/m -2,0 C 1,2 C 4,0 km/h (1 Bft) 0,00 %
23.01.2015 12:00 1,3 C 79 % 1018,3 hPa 0,0 l/m 0,3 km/h (0 Bft) N 0,25 h 0,000 mm 1,0 UV-I 206 W/m -2,0 C 1,3 C 3,0 km/h (1 Bft) 0,00 %
23.01.2015 13:00 1,1 C 80 % 1018,3 hPa 0,3 l/m 0,0 km/h (0 Bft) W-SW 0,00 h 0,000 mm 1,0 UV-I 113 W/m -2,0 C 1,1 C 0,0 km/h (0 Bft) 0,00 %
23.01.2015 14:00 0,9 C 80 % 1018,8 hPa 0,3 l/m 0,4 km/h (0 Bft) N 0,00 h 0,000 mm 0,0 UV-I 22 W/m -2,1 C 0,9 C 2,0 km/h (1 Bft) 0,00 %
23.01.2015 15:00 0,7 C 81 % 1019,3 hPa 0,0 l/m 2,3 km/h (1 Bft) W-SW 0,00 h 0,000 mm 0,0 UV-I 11 W/m -2,2 C 0,7 C 4,0 km/h (1 Bft) 0,00 %
23.01.2015 16:00 0,5 C 81 % 1019,6 hPa 0,3 l/m 1,3 km/h (1 Bft) N-NW 0,00 h 0,000 mm 0,0 UV-I 0 W/m -2,3 C 0,5 C 4,0 km/h (1 Bft) 0,00 %
23.01.2015 17:00 0,4 C 82 % 1020,0 hPa 0,3 l/m 0,7 km/h (0 Bft) W-SW 0,00 h 0,000 mm 0,0 UV-I 0 W/m -2,4 C 0,4 C 2,0 km/h (1 Bft) 0,00 %
23.01.2015 18:00 0,2 C 82 % 1020,7 hPa 0,0 l/m 0,6 km/h (0 Bft) N 0,00 h 0,000 mm 0,0 UV-I 0 W/m -2,5 C 0,2 C 2,0 km/h (1 Bft) 0,00 %
23.01.2015 19:00 0,0 C 82 % 1021,0 hPa 0,0 l/m 0,0 km/h (0 Bft) O 0,00 h 0,000 mm 0,0 UV-I 0 W/m -2,7 C 0,0 C 0,0 km/h (0 Bft) 0,00 %
23.01.2015 20:00 -0,1 C 83 % 1021,3 hPa 0,3 l/m 1,1 km/h (0 Bft) W-SW 0,00 h 0,000 mm 0,0 UV-I 0 W/m -2,6 C -0,1 C 4,0 km/h (1 Bft) 0,00 %
23.01.2015 21:00 -0,1 C 83 % 1021,5 hPa 0,0 l/m 0,1 km/h (0 Bft) N 0,00 h 0,000 mm 0,0 UV-I 0 W/m -2,6 C -0,1 C 1,0 km/h (0 Bft) 0,00 %
23.01.2015 22:00 -0,0 C 83 % 1021,6 hPa 0,0 l/m 0,1 km/h (0 Bft) W-SW 0,00 h 0,000 mm 0,0 UV-I 0 W/m -2,6 C -0,0 C 1,0 km/h (0 Bft) 0,00 %
23.01.2015 23:00 0,0 C 83 % 1021,7 hPa 0,0 l/m 0,5 km/h (0 Bft) N 0,00 h 0,000 mm 0,0 UV-I 0 W/m -2,5 C 0,0 C 1,3 km/h (1 Bft) 0,00 %
24.01.2015 00:00 -0,1 C 83 % 1021,6 hPa 0,3 l/m 0,0 km/h (0 Bft) N 0,00 h 0,000 mm 0,0 UV-I 0 W/m -2,6 C -0,1 C 0,0 km/h (0 Bft) 0,00 %
24.01.2015 01:00 -0,1 C 83 % 1021,3 hPa 0,0 l/m 0,6 km/h (0 Bft) W-SW 0,00 h 0,000 mm 0,0 UV-I 0 W/m -2,6 C -0,1 C 3,0 km/h (1 Bft) 0,00 %
24.01.2015 02:00 -0,1 C 83 % 1021,3 hPa 0,0 l/m 0,2 km/h (0 Bft) N 0,00 h 0,000 mm 0,0 UV-I 0 W/m -2,7 C -0,1 C 1,0 km/h (0 Bft) 0,00 %
24.01.2015 03:00 -0,2 C 83 % 1021,0 hPa 0,0 l/m 0,6 km/h (0 Bft) W-SW 0,00 h 0,000 mm 0,0 UV-I 0 W/m -2,7 C -0,2 C 2,0 km/h (1 Bft) 0,00 %
24.01.2015 04:00 -0,3 C 83 % 1020,6 hPa 0,0 l/m 0,1 km/h (0 Bft) N 0,00 h 0,000 mm 0,0 UV-I 0 W/m -2,8 C -0,3 C 1,0 km/h (0 Bft) 0,00 %
24.01.2015 05:00 -0,3 C 83 % 1020,2 hPa 0,0 l/m 0,1 km/h (0 Bft) N 0,00 h 0,000 mm 0,0 UV-I 0 W/m -2,8 C -0,3 C 1,0 km/h (0 Bft) 0,00 %
24.01.2015 06:00 -0,3 C 82 % 1019,9 hPa 0,0 l/m 0,4 km/h (0 Bft) N 0,00 h 0,000 mm 0,0 UV-I 0 W/m -2,9 C -0,3 C 3,0 km/h (1 Bft) 0,00 %
24.01.2015 07:00 -0,3 C 82 % 1020,0 hPa 0,3 l/m 0,2 km/h (0 Bft) N 0,00 h 0,000 mm 0,0 UV-I 0 W/m -3,0 C -0,3 C 2,0 km/h (1 Bft) 0,00 %
24.01.2015 08:00 -0,3 C 82 % 1020,0 hPa 0,0 l/m 0,1 km/h (0 Bft) N 0,00 h 0,000 mm 0,0 UV-I 0 W/m -3,0 C -0,3 C 1,0 km/h (0 Bft) 0,00 %
24.01.2015 09:00 -0,3 C 82 % 1019,8 hPa 0,0 l/m 0,2 km/h (0 Bft) N 0,00 h 0,000 mm 0,0 UV-I 0 W/m -3,0 C -0,3 C 1,0 km/h (0 Bft) 0,00 %
24.01.2015 10:00 -0,2 C 82 % 1019,7 hPa 0,0 l/m 0,1 km/h (0 Bft) N 0,00 h 0,000 mm 0,0 UV-I 0 W/m -2,9 C -0,2 C 1,0 km/h (0 Bft) 0,00 %
24.01.2015 11:00 -0,1 C 82 % 1019,1 hPa 0,0 l/m 0,1 km/h (0 Bft) SW 0,00 h 0,000 mm 0,0 UV-I 8 W/m -2,8 C -0,1 C 1,0 km/h (0 Bft) 0,00 %
24.01.2015 12:00 -0,1 C 81 % 1018,4 hPa 0,0 l/m 0,3 km/h (0 Bft) N 0,00 h 0,000 mm 0,0 UV-I 4 W/m -2,9 C -0,1 C 1,0 km/h (0 Bft) 0,00 %
24.01.2015 13:00 -0,1 C 81 % 1017,6 hPa 0,3 l/m 0,6 km/h (0 Bft) SW 0,00 h 0,000 mm 0,0 UV-I 10 W/m -3,0 C -0,1 C 2,0 km/h (1 Bft) 0,00 %
24.01.2015 14:00 -0,2 C 80 % 1017,5 hPa 0,0 l/m 0,2 km/h (0 Bft) N 0,00 h 0,000 mm 0,0 UV-I 0 W/m -3,2 C -0,2 C 1,0 km/h (0 Bft) 0,00 %
24.01.2015 15:00 -0,4 C 81 % 1017,5 hPa 0,0 l/m 3,6 km/h (1 Bft) W-SW 0,00 h 0,000 mm 0,0 UV-I 0 W/m -3,4 C -0,5 C 4,9 km/h (1 Bft) 0,00 %
24.01.2015 16:00 -0,5 C 80 % 1017,7 hPa 0,0 l/m 1,6 km/h (1 Bft) W-SW 0,00 h 0,000 mm 0,0 UV-I 0 W/m -3,6 C -0,5 C 4,0 km/h (1 Bft) 0,00 %
24.01.2015 17:00 -0,5 C 79 % 1018,2 hPa 0,0 l/m 1,0 km/h (0 Bft) W-SW 0,00 h 0,000 mm 0,0 UV-I 0 W/m -3,7 C -0,5 C 4,0 km/h (1 Bft) 0,00 %
24.01.2015 18:00 -0,5 C 78 % 1018,7 hPa 0,0 l/m 1,9 km/h (1 Bft) W-SW 0,00 h 0,000 mm 0,0 UV-I 0 W/m -3,9 C -0,5 C 3,0 km/h (1 Bft) 0,00 %
24.01.2015 19:00 -0,5 C 80 % 1019,2 hPa 0,0 l/m 0,4 km/h (0 Bft) N 0,00 h 0,000 mm 0,0 UV-I 0 W/m -3,6 C -0,5 C 2,0 km/h (1 Bft) 0,00 %
24.01.2015 20:00 -0,6 C 79 % 1019,7 hPa 0,0 l/m 3,2 km/h (1 Bft) W-SW 0,00 h 0,000 mm 0,0 UV-I 0 W/m -3,8 C -0,6 C 5,9 km/h (2 Bft) 0,00 %
24.01.2015 21:00 -0,7 C 76 % 1020,2 hPa 0,0 l/m 0,4 km/h (0 Bft) W-SW 0,00 h 0,000 mm 0,0 UV-I 0 W/m -4,3 C -0,7 C 3,0 km/h (1 Bft) 0,00 %
24.01.2015 22:00 -0,8 C 75 % 1020,6 hPa 0,0 l/m 0,9 km/h (0 Bft) W-SW 0,00 h 0,000 mm 0,0 UV-I 0 W/m -4,7 C -0,8 C 4,0 km/h (1 Bft) 0,00 %
24.01.2015 23:00 -0,9 C 75 % 1021,0 hPa 0,0 l/m 3,5 km/h (1 Bft) W-SW 0,00 h 0,000 mm 0,0 UV-I 0 W/m -4,8 C -1,4 C 7,9 km/h (2 Bft) 0,00 %
25.01.2015 00:00 -1,0 C 75 % 1021,3 hPa 0,0 l/m 1,7 km/h (1 Bft) W-SW 0,00 h 0,000 mm 0,0 UV-I 0 W/m -4,9 C -1,0 C 4,0 km/h (1 Bft) 0,00 %
25.01.2015 01:00 -0,8 C 73 % 1021,5 hPa 0,0 l/m 1,1 km/h (1 Bft) W-SW 0,00 h 0,000 mm 0,0 UV-I 0 W/m -4,9 C -0,8 C 4,0 km/h (1 Bft) 0,00 %
25.01.2015 02:00 -0,8 C 72 % 1021,8 hPa 0,0 l/m 1,7 km/h (1 Bft) W-SW 0,00 h 0,000 mm 0,0 UV-I 0 W/m -5,2 C -0,8 C 4,0 km/h (1 Bft) 0,00 %
25.01.2015 03:00 -0,7 C 73 % 1022,1 hPa 0,0 l/m 1,1 km/h (1 Bft) W-SW 0,00 h 0,000 mm 0,0 UV-I 0 W/m -5,0 C -0,7 C 2,0 km/h (1 Bft) 0,00 %
25.01.2015 04:00 -0,7 C 72 % 1022,3 hPa 0,0 l/m 1,5 km/h (1 Bft) W-SW 0,00 h 0,000 mm 0,0 UV-I 0 W/m -5,1 C -0,7 C 5,0 km/h (1 Bft) 0,00 %
25.01.2015 05:00 -0,8 C 76 % 1022,5 hPa 0,0 l/m 1,3 km/h (1 Bft) W-SW 0,00 h 0,000 mm 0,0 UV-I 0 W/m -4,5 C -0,8 C 4,0 km/h (1 Bft) 0,00 %
25.01.2015 06:00 -1,0 C 81 % 1022,9 hPa 0,0 l/m 0,5 km/h (0 Bft) W-SW 0,00 h 0,000 mm 0,0 UV-I 0 W/m -3,9 C -1,0 C 2,0 km/h (1 Bft) 0,00 %
25.01.2015 07:00 -0,7 C 80 % 1023,4 hPa 0,0 l/m 3,1 km/h (1 Bft) W-SW 0,00 h 0,000 mm 0,0 UV-I 0 W/m -3,8 C -0,8 C 6,9 km/h (2 Bft) 0,00 %
25.01.2015 08:00 -0,5 C 78 % 1024,1 hPa 0,0 l/m 2,7 km/h (1 Bft) W-SW 0,00 h 0,000 mm 0,0 UV-I 17 W/m -3,9 C -0,5 C 4,9 km/h (1 Bft) 0,00 %
25.01.2015 09:00 -0,3 C 76 % 1024,7 hPa 0,0 l/m 0,7 km/h (0 Bft) W-SW 0,00 h 0,000 mm 1,0 UV-I 48 W/m -4,1 C -0,3 C 3,0 km/h (1 Bft) 0,00 %
25.01.2015 10:00 -0,0 C 76 % 1025,1 hPa 0,0 l/m 1,9 km/h (1 Bft) W-SW 0,00 h 0,000 mm 1,0 UV-I 84 W/m -3,8 C -0,0 C 5,9 km/h (2 Bft) 0,00 %
25.01.2015 11:00 0,4 C 75 % 1025,2 hPa 0,0 l/m 1,3 km/h (1 Bft) O-NO 0,25 h 0,000 mm 1,0 UV-I 205 W/m -3,5 C 0,4 C 4,0 km/h (1 Bft) 0,00 %
25.01.2015 12:00 1,0 C 72 % 1025,2 hPa 0,0 l/m 3,5 km/h (1 Bft) W-SW 0,50 h 0,000 mm 1,3 UV-I 213 W/m -3,5 C 0,6 C 6,9 km/h (2 Bft) 0,00 %
25.01.2015 13:00 1,3 C 71 % 1025,1 hPa 0,3 l/m 2,9 km/h (1 Bft) W-SW 0,00 h 0,000 mm 1,7 UV-I 145 W/m -3,4 C 1,3 C 6,9 km/h (2 Bft) 0,00 %
25.01.2015 14:00 1,1 C 71 % 1025,4 hPa 0,0 l/m 3,8 km/h (1 Bft) W-SW 0,00 h 0,000 mm 1,0 UV-I 70 W/m -3,7 C 0,7 C 5,9 km/h (2 Bft) 0,00 %
25.01.2015 15:00 0,8 C 71 % 1025,9 hPa 0,0 l/m 4,5 km/h (1 Bft) W-SW 0,00 h 0,000 mm 0,0 UV-I 15 W/m -3,9 C 0,1 C 7,9 km/h (2 Bft) 0,00 %
25.01.2015 16:00 0,5 C 71 % 1026,4 hPa 0,0 l/m 1,0 km/h (0 Bft) W-SW 0,00 h 0,000 mm 0,0 UV-I 3 W/m -4,1 C 0,5 C 3,0 km/h (1 Bft) 0,00 %
25.01.2015 17:00 0,4 C 71 % 1026,8 hPa 0,0 l/m 1,5 km/h (1 Bft) W-SW 0,00 h 0,000 mm 0,0 UV-I 0 W/m -4,2 C 0,4 C 3,0 km/h (1 Bft) 0,00 %
25.01.2015 18:00 0,3 C 71 % 1027,1 hPa 0,0 l/m 1,1 km/h (1 Bft) W-SW 0,00 h 0,000 mm 0,0 UV-I 0 W/m -4,3 C 0,3 C 2,0 km/h (1 Bft) 0,00 %
25.01.2015 19:00 0,2 C 71 % 1027,3 hPa 0,0 l/m 2,5 km/h (1 Bft) SW 0,00 h 0,000 mm 0,0 UV-I 0 W/m -4,5 C -0,5 C 5,9 km/h (2 Bft) 0,00 %
25.01.2015 20:00 0,1 C 70 % 1027,6 hPa 0,0 l/m 2,6 km/h (1 Bft) SW 0,00 h 0,000 mm 0,0 UV-I 0 W/m -4,7 C 0,1 C 4,9 km/h (1 Bft) 0,00 %
25.01.2015 21:00 -0,1 C 70 % 1027,8 hPa 0,0 l/m 1,9 km/h (1 Bft) W 0,00 h 0,000 mm 0,0 UV-I 0 W/m -4,8 C -0,1 C 4,0 km/h (1 Bft) 0,00 %
25.01.2015 22:00 -0,6 C 76 % 1027,9 hPa 0,0 l/m 0,9 km/h (0 Bft) W 0,00 h 0,000 mm 0,0 UV-I 0 W/m -4,3 C -0,6 C 4,0 km/h (1 Bft) 0,00 %
25.01.2015 23:00 -0,6 C 77 % 1027,9 hPa 0,0 l/m 0,3 km/h (0 Bft) N 0,00 h 0,000 mm 0,0 UV-I 0 W/m -4,2 C -0,6 C 2,0 km/h (1 Bft) 0,00 %
Min-Datum _ 19.01.15 19.01.15 22.01.15 - 19.01.15 - - - - - 25.01.15 21.01.15 19.01.15 19.01.15
_ Min-Zeit 23:15 14:45 05:00 - 00:00 - - - - - 02:00 18:00 00:00 00:00
Minimum _ -1,2 C 62 % 1007,9 hPa - 0,0 km/h (0 Bft) - - - - - -5,2 C -8,1 C 0,0 km/h (0 Bft) 0,00 %
Max-Datum _ 22.01.15 23.01.15 25.01.15 23.01.15 21.01.15 - 19.01.15 19.01.15 19.01.15 23.01.15 22.01.15 22.01.15 21.01.15 19.01.15
_ Max-Zeit 13:45 20:00 22:30 13:00 18:00 - 12:15 00:00 12:00 10:45 13:45 13:45 18:00 00:00
Maximum _ 4,9 C 83 % 1028,1 hPa 0,3 l/m 19,8 km/h
O-SO (3 Bft)
- 0,25 h 0,000 mm 2,0 UV-I 276 W/m 0,7 C 4,9 C 28,1 km/h
O-SO (4 Bft)
0,00 %
Durchschnitt _ 0,5 C 77 % 1015,1 hPa #2,7 l/m 1,5 km/h (1 Bft) W-SW #9:15 h #0,000 mm 1,0 UV-I 97 W/m -3,1 C 0,3 C 3,2 km/h (1 Bft) 0,00 %